#timestamp,LO_Frequency,Hit,StdDev 
1546272015.6,286046999.9,N
1546272035.4,286047000.4,N
1546272055.2,286047000.7,N
1546272075.1,286047000.4,N
1546272076.0,286047000.4,N
1546272095.8,286047000.4,N
1546272115.7,286047000.5,N
1546272135.5,286047002.5,N
1546272155.3,286047002.6,N
1546272175.2,286047002.0,N
1546272195.0,286047002.3,N
1546272195.9,286047002.3,N
1546272215.7,286047002.4,N
1546272235.6,286046999.8,N
1546272255.4,286046999.8,N
1546272275.3,286047002.3,N
1546272295.1,286047002.5,N
1546272296.0,286047002.5,N
1546272315.8,286047001.8,N
1546272335.7,286047003.2,N
1546272355.5,286047003.7,Y
1546272375.4,286047001.4,P
1546272395.2,286047002.0,P
1546272415.0,286046999.9,N
1546272415.9,286046999.9,N
1546272435.8,286047001.8,N
1546272455.6,286047001.8,N
1546272475.4,286047001.6,N
1546272495.3,286047001.5,N
1546272515.1,286047000.1,N
1546272535.9,286047000.1,N
1546272555.7,286047004.4,Y
1546272575.5,286047000.5,P
1546272595.4,286046999.8,N
1546272615.2,286047002.3,P
1546272635.0,286047000.1,N
1546272636.0,286047000.1,N
1546272655.8,286046999.7,N
1546272675.6,286047001.1,N
1546272695.5,286046999.2,N
1546272715.3,286046996.9,Y
1546272735.1,286046996.7,P
1546272755.9,286046999.0,N
1546272775.7,286046998.3,N
1546272795.6,286046998.3,N
1546272815.4,286046998.2,N
1546272835.2,286046999.6,N
1546272855.1,286046996.5,Y
1546272856.0,286046996.5,P
1546272875.8,286046999.5,N
1546272895.7,286046998.9,N
1546272915.5,286046999.3,N
1546272935.3,286046999.1,N
1546272955.2,286046996.6,Y
1546272975.0,286046999.0,P
1546272975.9,286046999.0,P
1546272995.8,286046998.4,P
1546273015.6,286046998.4,Y
1546273035.4,286046998.6,P
1546273055.3,286046998.1,P
1546273075.1,286046999.5,N
1546273095.9,286046999.5,N
1546273115.7,286046998.7,N
1546273135.5,286046998.3,Y
1546273155.4,286046998.2,P
1546273175.2,286047000.3,N
1546273195.0,286047000.7,N
1546273195.9,286047000.7,N
1546273215.8,286047000.6,N
1546273235.6,286047000.6,N
1546273255.5,286047001.1,N
1546273275.3,286046999.2,N
1546273295.1,286046996.6,Y
1546273315.9,286046998.3,P
1546273335.7,286047000.5,N
1546273355.5,286047000.4,N
1546273375.4,286047000.2,N
1546273395.2,286046998.1,N
1546273415.1,286046998.9,N
1546273416.0,286046998.9,N
1546273435.8,286046998.3,N
1546273455.6,286046998.2,N
1546273475.5,286046999.8,N
1546273495.3,286047002.7,N
1546273515.2,286047002.4,N
1546273535.9,286047000.6,N
1546273555.7,286047000.3,N
1546273575.6,286046998.8,N
1546273595.4,286046996.7,N
1546273615.2,286046997.1,N
1546273635.1,286046997.3,N
1546273636.0,286046997.3,N
1546273655.8,286046997.9,N
1546273675.7,286046996.7,N
1546273695.5,286046997.3,N
1546273715.3,286046999.5,N
1546273735.2,286046997.2,N
1546273755.0,286046997.3,N
1546273755.9,286046997.3,N
1546273775.7,286046995.3,N
1546273795.6,286046997.1,N
1546273815.4,286046997.9,N
1546273835.3,286046997.4,N
1546273855.1,286046999.0,N
1546273856.0,286046999.0,N
1546273875.8,286047001.2,N
1546273895.7,286046996.5,N
1546273915.5,286046997.8,N
1546273935.4,286046997.0,N
1546273955.2,286046999.5,N
1546273975.0,286046996.9,N
1546273975.9,286046996.9,N
1546273995.8,286046996.8,N
1546274015.6,286046999.6,N
1546274035.4,286046998.3,N
1546274055.3,286047002.4,N
1546274075.1,286047001.5,N
1546274095.9,286047002.7,N
1546274115.7,286047000.3,N
1546274135.5,286047002.6,N
1546274155.4,286047000.4,N
1546274175.2,286047000.3,N
1546274195.0,286046998.3,N
1546274195.9,286046998.3,N
1546274215.8,286046998.3,N
1546274235.6,286046999.0,N
1546274255.5,286046999.0,N
1546274275.3,286046996.6,N
1546274295.1,286046999.4,N
1546274315.9,286046999.2,N
1546274335.7,286046998.7,N
1546274355.5,286046998.4,N
1546274375.4,286047006.0,Y
1546274395.2,286047010.3,P
1546274415.1,286047006.5,N
1546274416.0,286047006.5,N
1546274435.8,286047006.0,N
1546274455.6,286047002.4,N
1546274475.5,286047003.5,N
1546274495.3,286047005.8,N
1546274515.1,286047004.8,N
1546274535.9,286047001.7,N
1546274555.7,286046999.9,N
1546274575.6,286046998.4,N
1546274595.4,286046999.3,N
1546274615.2,286046996.9,N
1546274635.1,286046995.3,N
1546274636.0,286046995.3,N
1546274655.8,286046995.8,N
1546274675.7,286046993.7,N
1546274695.5,286046996.3,N
1546274715.3,286046994.5,N
1546274735.2,286046994.0,N
1546274755.9,286046992.3,N
1546274775.7,286046994.0,N
1546274795.6,286046996.4,N
1546274815.4,286046996.4,N
1546274835.3,286046996.1,N
1546274855.1,286046995.8,N
1546274856.0,286046995.8,N
1546274875.8,286046994.2,N
1546274895.7,286046993.4,N
1546274915.5,286046993.9,N
1546274935.3,286046991.7,N
1546274955.2,286046993.0,N
1546274975.0,286046990.2,N
1546274975.9,286046990.2,N
1546274995.8,286046990.5,N
1546275015.6,286046990.2,N
1546275035.4,286046990.8,N
1546275055.3,286046988.7,Y
1546275075.1,286046993.3,P
1546275095.9,286046995.1,P
1546275115.7,286046994.9,P
1546275135.5,286046997.1,Y
1546275155.4,286047004.0,P
1546275175.2,286047001.5,N
1546275195.0,286047002.2,N
1546275196.0,286047002.2,N
1546275215.8,286047001.7,N
1546275235.6,286047005.2,N
1546275255.5,286047009.2,N
1546275275.3,286047004.9,N
1546275295.1,286047007.5,N
1546275315.9,286047005.9,N
1546275335.7,286047006.2,N
1546275355.6,286047006.3,N
1546275375.4,286047004.9,N
1546275395.2,286047004.9,N
1546275415.1,286047005.1,N
1546275416.0,286047005.1,N
1546275435.8,286047004.7,N
1546275455.6,286047004.9,N
1546275475.5,286047007.1,N
1546275495.3,286047004.7,N
1546275515.2,286047005.4,N
1546275535.9,286047004.8,N
1546275555.7,286047004.5,N
1546275575.6,286047005.1,N
1546275595.4,286047005.0,N
